SB KEPS @ AMSAT $ORB07053.O Orbital Elements 07053.OSCAR
HR AMSAT ORBITAL ELEMENTS FOR OSCAR SATELLITES FROM WA5QGD FORT WORTH,TX February 22, 2007 Send SUBSCRIBE KEPS/UNSUBSCRIBE KEPS to [email protected] only BID: ORB07053.O TO ALL RADIO AMATEURS BT
Satellite: AO-07 Catalog number: 07530 Epoch time: 07052.74139395 Element set: 811 Inclination: 101.5330 deg RA of node: 094.0808 deg Eccentricity: 0.0012127 Arg of perigee: 120.5932 deg Mean anomaly: 239.6336 deg Mean motion: 12.53572551 rev/day Decay rate: -2.8e-07 rev/day^2 Epoch rev: 47665 Checksum: 282
Satellite: AO-10 Catalog number: 14129 Epoch time: 07051.97252659 Element set: 0361 Inclination: 026.8971 deg RA of node: 290.5042 deg Eccentricity: 0.6053217 Arg of perigee: 359.8030 deg Mean anomaly: 000.1824 deg Mean motion: 02.05870325 rev/day Decay rate: -6.7e-07 rev/day^2 Epoch rev: 17817 Checksum: 289
Satellite: UO-11 Catalog number: 14781 Epoch time: 07052.54448836 Element set: 306 Inclination: 098.1989 deg RA of node: 072.9599 deg Eccentricity: 0.0008864 Arg of perigee: 177.2936 deg Mean anomaly: 182.8356 deg Mean motion: 14.79522747 rev/day Decay rate: -7.3e-07 rev/day^2 Epoch rev: 23263 Checksum: 353
Satellite: RS-10/11 Catalog number: 18129 Epoch time: 07052.74610958 Element set: 0237 Inclination: 082.9285 deg RA of node: 143.5804 deg Eccentricity: 0.0012894 Arg of perigee: 114.4650 deg Mean anomaly: 245.7851 deg Mean motion: 13.72784201 rev/day Decay rate: 2.0e-07 rev/day^2 Epoch rev: 98539 Checksum: 308
Satellite: RS-15 Catalog number: 23439 Epoch time: 07053.83639148 Element set: 12 Inclination: 064.8156 deg RA of node: 191.8459 deg Eccentricity: 0.0162470 Arg of perigee: 210.8217 deg Mean anomaly: 148.3086 deg Mean motion: 11.27551811 rev/day Decay rate: -3.9e-07 rev/day^2 Epoch rev: 50080 Checksum: 294
Satellite: FO-29 Catalog number: 24278 Epoch time: 07052.91127719 Element set: 0454 Inclination: 098.5344 deg RA of node: 028.1134 deg Eccentricity: 0.0351300 Arg of perigee: 022.1615 deg Mean anomaly: 339.4294 deg Mean motion: 13.52928045 rev/day Decay rate: -4.0e-07 rev/day^2 Epoch rev: 51931 Checksum: 287
Satellite: SO-33 Catalog number: 25509 Epoch time: 07053.62714394 Element set: 870 Inclination: 031.4296 deg RA of node: 153.4449 deg Eccentricity: 0.0355137 Arg of perigee: 145.8811 deg Mean anomaly: 216.5171 deg Mean motion: 14.28149069 rev/day Decay rate: 1.98e-06 rev/day^2 Epoch rev: 43486 Checksum: 320
Satellite: AO-40 Catalog number: 26609 Epoch time: 07047.31981948 Element set: 841 Inclination: 004.8423 deg RA of node: 174.2167 deg Eccentricity: 0.7994411 Arg of perigee: 274.6516 deg Mean anomaly: 008.5063 deg Mean motion: 01.25586463 rev/day Decay rate: 7.0e-07 rev/day^2 Epoch rev: 2892 Checksum: 317
Satellite: VO-52 Catalog number: 28650 Epoch time: 07053.40981443 Element set: 561 Inclination: 097.8422 deg RA of node: 126.6444 deg Eccentricity: 0.0026136 Arg of perigee: 267.4723 deg Mean anomaly: 092.3496 deg Mean motion: 14.81266560 rev/day Decay rate: -2.43e-06 rev/day^2 Epoch rev: 9742 Checksum: 310
Satellite: PO-63 Catalog number: 29712 Epoch time: 07053.62050396 Element set: 127 Inclination: 097.9362 deg RA of node: 114.3119 deg Eccentricity: 0.0015310 Arg of perigee: 137.7474 deg Mean anomaly: 222.4928 deg Mean motion: 14.79561474 rev/day Decay rate: 5.83e-06 rev/day^2 Epoch rev: 639 Checksum: 306
/EX SB KEPS @ AMSAT $ORB07053.D Orbital Elements 07053.MICROS
HR AMSAT ORBITAL ELEMENTS FOR THE MICROSATS FROM WA5QGD FORT WORTH,TX February 22, 2007 Send SUBSCRIBE KEPS/UNSUBSCRIBE KEPS to [email protected] only BID: ORB07053.D TO ALL RADIO AMATEURS BT
Satellite: AO-16 Catalog number: 20439 Epoch time: 07053.40989142 Element set: 972 Inclination: 098.1923 deg RA of node: 054.3127 deg Eccentricity: 0.0010972 Arg of perigee: 164.0865 deg Mean anomaly: 196.0660 deg Mean motion: 14.31751101 rev/day Decay rate: 2.3e-07 rev/day^2 Epoch rev: 89212 Checksum: 288
Satellite: LO-19 Catalog number: 20442 Epoch time: 07052.55926620 Element set: 0900 Inclination: 098.1824 deg RA of node: 062.9863 deg Eccentricity: 0.0011965 Arg of perigee: 166.1245 deg Mean anomaly: 194.0278 deg Mean motion: 14.31991919 rev/day Decay rate: -7.1e-07 rev/day^2 Epoch rev: 89214 Checksum: 315
Satellite: AO-27 Catalog number: 22825 Epoch time: 07052.54292266 Element set: 622 Inclination: 098.3180 deg RA of node: 027.5490 deg Eccentricity: 0.0007603 Arg of perigee: 240.8013 deg Mean anomaly: 119.2397 deg Mean motion: 14.29198922 rev/day Decay rate: -1.99e-06 rev/day^2 Epoch rev: 69897 Checksum: 326
Satellite: IO-26 Catalog number: 22826 Epoch time: 07053.59007911 Element set: 317 Inclination: 098.3100 deg RA of node: 029.6670 deg Eccentricity: 0.0008133 Arg of perigee: 235.8630 deg Mean anomaly: 124.1780 deg Mean motion: 14.29445469 rev/day Decay rate: -6.0e-08 rev/day^2 Epoch rev: 69920 Checksum: 295
Satellite: PO-28 Catalog number: 22829 Epoch time: 07052.55261730 Element set: 597 Inclination: 098.2994 deg RA of node: 029.8593 deg Eccentricity: 0.0009239 Arg of perigee: 210.9585 deg Mean anomaly: 149.1057 deg Mean motion: 14.30143323 rev/day Decay rate: -8.1e-07 rev/day^2 Epoch rev: 69928 Checksum: 333
Satellite: GO-32 Catalog number: 25397 Epoch time: 07053.76899682 Element set: 237 Inclination: 098.4315 deg RA of node: 105.9030 deg Eccentricity: 0.0001255 Arg of perigee: 163.3576 deg Mean anomaly: 196.7658 deg Mean motion: 14.23120210 rev/day Decay rate: -8.8e-07 rev/day^2 Epoch rev: 44788 Checksum: 322
Satellite: MO-46 Catalog number: 26548 Epoch time: 07052.54364528 Element set: 728 Inclination: 064.5573 deg RA of node: 180.4166 deg Eccentricity: 0.0028438 Arg of perigee: 212.9092 deg Mean anomaly: 147.0248 deg Mean motion: 14.83101542 rev/day Decay rate: 8.5e-07 rev/day^2 Epoch rev: 34638 Checksum: 312
Satellite: NO-44 Catalog number: 26931 Epoch time: 07053.55347870 Element set: 527 Inclination: 067.0506 deg RA of node: 082.7788 deg Eccentricity: 0.0006080 Arg of perigee: 277.9822 deg Mean anomaly: 082.0569 deg Mean motion: 14.29472991 rev/day Decay rate: -1.78e-06 rev/day^2 Epoch rev: 28171 Checksum: 336
Satellite: SO-50 Catalog number: 27607 Epoch time: 07052.56910646 Element set: 248 Inclination: 064.5570 deg RA of node: 076.0532 deg Eccentricity: 0.0041003 Arg of perigee: 037.7071 deg Mean anomaly: 322.6862 deg Mean motion: 14.71228897 rev/day Decay rate: -1.46e-06 rev/day^2 Epoch rev: 22411 Checksum: 285
Satellite: CO-55 Catalog number: 27844 Epoch time: 07052.93956834 Element set: 0967 Inclination: 098.7209 deg RA of node: 062.8049 deg Eccentricity: 0.0010698 Arg of perigee: 065.3739 deg Mean anomaly: 294.8544 deg Mean motion: 14.20492982 rev/day Decay rate: 4.7e-07 rev/day^2 Epoch rev: 18911 Checksum: 358
Satellite: CO-57 Catalog number: 27848 Epoch time: 07052.94553866 Element set: 0929 Inclination: 098.7202 deg RA of node: 062.0500 deg Eccentricity: 0.0010633 Arg of perigee: 067.9614 deg Mean anomaly: 292.2690 deg Mean motion: 14.20314732 rev/day Decay rate: 4.5e-07 rev/day^2 Epoch rev: 18909 Checksum: 312
Satellite: AO-51 Catalog number: 28375 Epoch time: 07052.57361329 Element set: 753 Inclination: 098.1305 deg RA of node: 097.7624 deg Eccentricity: 0.0083529 Arg of perigee: 172.2193 deg Mean anomaly: 188.0316 deg Mean motion: 14.40556030 rev/day Decay rate: 1.6e-07 rev/day^2 Epoch rev: 13906 Checksum: 301
Satellite: CO-56 Catalog number: 28941 Epoch time: 07052.86936447 Element set: 0360 Inclination: 098.1461 deg RA of node: 101.4619 deg Eccentricity: 0.0242470 Arg of perigee: 320.2669 deg Mean anomaly: 038.0907 deg Mean motion: 15.35035297 rev/day Decay rate: 1.6643e-04 rev/day^2 Epoch rev: 05571 Checksum: 316
Satellite: HO-59 Catalog number: 29484 Epoch time: 07052.82468534 Element set: 0205 Inclination: 098.3041 deg RA of node: 085.7974 deg Eccentricity: 0.0238807 Arg of perigee: 317.2223 deg Mean anomaly: 041.0616 deg Mean motion: 15.42326214 rev/day Decay rate: 3.3738e-04 rev/day^2 Epoch rev: 02324 Checksum: 306
Satellite: NO-60 Catalog number: 29661 Epoch time: 07052.92491225 Element set: 0078 Inclination: 051.6465 deg RA of node: 335.7035 deg Eccentricity: 0.0009857 Arg of perigee: 244.3921 deg Mean anomaly: 115.6063 deg Mean motion: 15.89005677 rev/day Decay rate: 5.1714e-04 rev/day^2 Epoch rev: 00998 Checksum: 322
Satellite: NO-61 Catalog number: 29667 Epoch time: 07052.96388241 Element set: 0064 Inclination: 051.6394 deg RA of node: 336.6809 deg Eccentricity: 0.0014839 Arg of perigee: 252.0961 deg Mean anomaly: 107.8421 deg Mean motion: 15.83976747 rev/day Decay rate: 1.3372e-04 rev/day^2 Epoch rev: 00971 Checksum: 336
/EX SB KEPS @ AMSAT $ORB07053.W Orbital Elements 07053.WEATHER
HR AMSAT ORBITAL ELEMENTS FOR WEATHER SATELLITES FROM WA5QGD FORT WORTH,TX February 22, 2007 Send SUBSCRIBE KEPS/UNSUBSCRIBE KEPS to [email protected] only BID: ORB07053.W TO ALL RADIO AMATEURS BT
Satellite: NOAA-10 Catalog number: 16969 Epoch time: 07052.63651584 Element set: 0556 Inclination: 098.7531 deg RA of node: 069.7078 deg Eccentricity: 0.0012770 Arg of perigee: 141.0792 deg Mean anomaly: 219.1309 deg Mean motion: 14.27318198 rev/day Decay rate: 4.4e-07 rev/day^2 Epoch rev: 06274 Checksum: 318
Satellite: NOAA-11 Catalog number: 19531 Epoch time: 07052.29413288 Element set: 0548 Inclination: 098.8134 deg RA of node: 142.9029 deg Eccentricity: 0.0011832 Arg of perigee: 004.6764 deg Mean anomaly: 355.4527 deg Mean motion: 14.14836424 rev/day Decay rate: 2.60e-06 rev/day^2 Epoch rev: 94976 Checksum: 312
Satellite: NOAA-12 Catalog number: 21263 Epoch time: 07052.56114160 Element set: 0042 Inclination: 098.7492 deg RA of node: 050.0148 deg Eccentricity: 0.0013616 Arg of perigee: 084.4754 deg Mean anomaly: 275.7962 deg Mean motion: 14.25522097 rev/day Decay rate: -1.09e-06 rev/day^2 Epoch rev: 81977 Checksum: 295
